Flag for Bahrain Weather past 2 weeks in Riffa, Bahrain

Now
97 °F

Sunny.


Feels Like: 100 °F
Forecast: 87 / 99 °F
Wind: 8 mph from East

Location: Bahrain International Airport

Current Time: Sep 21, 2014 at 3:33:44 PM

Latest Report: Sep 21, 2014 at 3:00 PM


Visibility: 10 mi

Pressure: 29.62 "Hg

Humidity: 37%

Dew point: 66 °F

Location of RiffaLocation

Historic Weather in Riffa — Graph

°F

Riffa temperature yesterday

Maximum temperature yesterday: 100 °F (at 2:00 PM)
Minimum temperature yesterday: 88 °F (at 12:00 AM)
Average temperature yesterday: 92 °F

Past Weeks' High & Low Weather Summary

 TemperatureHumidityPressure
High104 °F (Sep 7, 2:00 PM)71% (Sep 7, 6:00 AM)29.80 "Hg (Sep 7, 6:00 AM)
Low84 °F (Sep 21, 6:00 AM)15% (Sep 16, 9:00 AM)29.53 "Hg (Sep 6, 2:00 PM)
Average94 °F47%29.64 "Hg
* Reported Sep 6 2:00 PM — Sep 21 2:00 PM, Riffa, Weather by CustomWeather, © 2014

Note: Actual official high and low records may vary slightly from our data, if they occured in-between our weather recording intervals... More about our weather records

Advertising

Riffa weather history for previous 24 hours

 ConditionsComfort  
Time TempWeatherWind HumidityBarometerVisibility
2:00 PM
Sep 21
99 °FPassing clouds.7 mph37%29.62 "HgN/A
1:00 PM97 °FSunny.7 mph34%29.65 "Hg10 mi
12:00 PM99 °FSunny.8 mph44%29.65 "Hg10 mi
11:00 AM102 °FPassing clouds.3 mph27%29.68 "HgN/A
10:00 AM100 °FPassing clouds.5 mph27%29.68 "HgN/A
9:00 AM95 °FSunny.5 mph41%29.71 "Hg10 mi
8:00 AM93 °FSunny.3 mph56%29.68 "Hg10 mi
7:00 AM90 °FSunny.2 mph63%29.68 "Hg10 mi
6:00 AM84 °FSunny.No wind58%29.65 "Hg10 mi
5:00 AM86 °FClear.No wind49%29.65 "Hg10 mi
4:00 AM86 °FClear.3 mph52%29.62 "Hg10 mi
3:00 AM88 °FClear.2 mph52%29.62 "Hg10 mi
2:00 AM90 °FClear.3 mph46%29.62 "Hg10 mi
1:00 AM90 °FClear.3 mph52%29.62 "Hg10 mi
12:00 AM90 °FClear.3 mph52%29.65 "Hg10 mi
11:00 PM
Sep 20
91 °FClear.2 mph46%29.65 "Hg10 mi
10:00 PM90 °FClear.2 mph55%29.68 "Hg10 mi
9:00 PM90 °FClear.2 mph55%29.68 "Hg10 mi
8:00 PM90 °FClear.3 mph55%29.68 "Hg10 mi
4:00 PM95 °FSunny.9 mph36%29.62 "Hg10 mi
3:00 PM100 °FSunny.9 mph21%29.62 "Hg10 mi
Weather by CustomWeather, © 2014

See weather overviewHow to use our weather pages